Location: Bieujac
(44.5398°N, 0.1549°W)
Time: 06:28:31
(UTC+00:00)

FENGYUN 3A - Pass Details

Date: 17 November 2019
Orbit: 824 x 836 km, 98.4° (Epoch: 07 December)

Event Time Altitude Azimuth Distance (km) Brightness Sun altitude
Rises 05:29:06 0° 14° (NNE) 3,391 6.9 -16.0°
Reaches altitude 10° 05:31:28 10° 15° (NNE) 2,451 6.2 -15.6°
Maximum altitude 05:36:55 81° 103° (ESE) 846 3.8 -14.6°
Drops below altitude 10° 05:42:19 10° 191° (SSW) 2,425 6.1 -13.7°
Sets 05:44:39 0° 193° (SSW) 3,353 6.8 -13.3°
